C/2022 V2 ( Lemmon )

Japanese version
Home page
Updated on February 29, 2024

---------------------------------------------------------------------

* Profile

Discovery Date November 2, 2022
Magnitude 20.6 mag
Discoverer Mt. Lemmon Survey

* Pictures

* Orbital Elements

Epoch 2024 Mar. 31.0 TT = JDT 2460400.5
T 2023 Nov. 1.92681 TT                                  Rudenko
q   2.0636032            (2000.0)            P               Q
z  +0.0271624      Peri.  168.95057     -0.88700380     -0.10130565
 +/-0.0000014      Node   332.87030     +0.31108498     +0.58990920
e   0.9439476      Incl.   98.90290     +0.34124828     -0.80108944
>From 613 observations 2022 July 20-2024 Feb. 23, mean residual 0".4.

* Finding Charts

* Magnitudes Graph

        m1 = 13.5 + 5 log d + 6.5 log r(t + 75)

        * Gray curve is:  m1 = 11.5 + 5 log d + 10.0 log r

---------------------------------------------------------------------

The orbital elements are published on M.P.E.C. 2024-D126.
The charts are made with StellaNavigator Ver.11 (AstroArts).
The magnitudes graphs are made with Comet for Windows.

---------------------------------------------------------------------

Copyright(C) Seiichi Yoshida (comet@aerith.net). All rights reserved.